Weather History for Evanston, WY

Change the Weather History Date:

Sunday, October 6, 2013

  Actual Average Record
Temperature  
Mean Temperature 48 °F 48 °F  
Max Temperature 66 °F 60 °F 71 °F (1996)
Min Temperature 30 °F 35 °F 23 °F (2012)
Degree Days  
Heating Degree Days 17 17  
Month to date heating degree days 132 97  
Since 1 July heating degree days 411 494  
Cooling Degree Days 0 0  
Month to date cooling degree days 0 0  
Year to date cooling degree days 348 162  
Moisture  
Dew Point 25 °F    
Average Humidity 49    
Maximum Humidity 78    
Minimum Humidity 19    
Precipitation  
Precipitation 0.00 in 0.03 in 0.18 in (2006)
Month to date precipitation 0.12 0.17  
Year to date precipitation 4.18 9.51  
Sea Level Pressure  
Sea Level Pressure 30.32 in    
Wind  
Wind Speed 7 mph (SW)    
Max Wind Speed 12 mph    
Max Gust Speed 21 mph    
Visibility 10 miles    
Events      
T = Trace of Precipitation, MM = Missing Value Source: NWS Daily Summary

Daily Weather History Graph

Daily Weather History Graph

Search for Another Location

Airport:

Trip Planner

Search our weather history database for the weather conditions in past years. The results will help you decide how hot, cold, wet, or windy it might be!

Date:

Astronomy

Oct. 06, 2013 Rise Set
Actual Time 7:26 AM MDT 6:57 PM MDT
Civil Twilight 6:58 AM MDT 7:24 PM MDT
Nautical Twilight 6:26 AM MDT 7:56 PM MDT
Astronomical Twilight 5:54 AM MDT 8:28 PM MDT
Moon 9:16 AM MDT (10/6) 7:57 PM MDT (10/6)
Length of Visible Light 12h 25m
Length of Day
11h 30m
Waxing Crescent, 4% of the Moon is Illuminated
Oct 6
Waxing Crescent
Oct 11
First Quarter
Oct 18
Full
Oct 26
Last Quarter
Nov 3
New

Hourly Weather History & Observations

Time (MDT) Temp. Windchill Dew Point Humidity Pressure Visibility Wind Dir Wind Speed Gust Speed Precip Events Conditions
12:53 AM 33.1 °F 26.1 °F 24.1 °F 70% 30.42 in 10.0 mi SSW 8.1 mph - N/A   Clear
1:53 AM 34.0 °F 28.8 °F 25.0 °F 70% 30.40 in 10.0 mi SSW 5.8 mph - N/A   Clear
2:53 AM 30.9 °F 24.3 °F 24.1 °F 76% 30.40 in 10.0 mi SW 6.9 mph - N/A   Clear
3:53 AM 30.0 °F 22.4 °F 24.1 °F 79% 30.38 in 10.0 mi SSW 8.1 mph - N/A   Clear
4:53 AM 30.0 °F 21.7 °F 25.0 °F 82% 30.38 in 10.0 mi SSW 9.2 mph - N/A   Clear
5:53 AM 30.0 °F 23.2 °F 24.1 °F 79% 30.38 in 10.0 mi South 6.9 mph - N/A   Clear
6:53 AM 30.9 °F 25.2 °F 24.1 °F 76% 30.40 in 10.0 mi South 5.8 mph - N/A   Clear
7:53 AM 32.0 °F 27.5 °F 24.1 °F 73% 30.43 in 10.0 mi SSE 4.6 mph - N/A   Clear
8:53 AM 36.0 °F 32.1 °F 25.0 °F 64% 30.45 in 10.0 mi South 4.6 mph - N/A   Clear
9:53 AM 41.0 °F 37.1 °F 24.1 °F 51% 30.42 in 10.0 mi WSW 5.8 mph - N/A   Clear
10:53 AM 48.9 °F - 25.0 °F 39% 30.37 in 10.0 mi Calm Calm - N/A   Clear
11:53 AM 54.0 °F - 27.0 °F 35% 30.34 in 10.0 mi West 4.6 mph - N/A   Clear
12:53 PM 57.9 °F - 26.1 °F 30% 30.30 in 10.0 mi West 4.6 mph - N/A   Clear
1:53 PM 61.0 °F - 27.0 °F 27% 30.26 in 10.0 mi SW 11.5 mph 16.1 mph N/A   Clear
2:53 PM 64.0 °F - 26.1 °F 24% 30.25 in 10.0 mi West 6.9 mph 17.3 mph N/A   Clear
3:53 PM 64.9 °F - 23.0 °F 20% 30.24 in 10.0 mi WSW 9.2 mph - N/A   Clear
4:53 PM 64.9 °F - 21.9 °F 19% 30.22 in 10.0 mi WSW 11.5 mph 20.7 mph N/A   Clear
5:53 PM 63.0 °F - 24.1 °F 23% 30.23 in 10.0 mi WSW 12.7 mph - N/A   Clear
6:53 PM 55.0 °F - 25.0 °F 31% 30.26 in 10.0 mi WSW 6.9 mph - N/A   Clear
7:53 PM 51.1 °F - 26.1 °F 38% 30.27 in 10.0 mi West 10.4 mph - N/A   Clear
8:53 PM 51.1 °F - 25.0 °F 36% 30.25 in 10.0 mi SW 5.8 mph - N/A   Clear
9:53 PM 48.9 °F - 25.0 °F 39% 30.24 in 10.0 mi South 6.9 mph - N/A   Clear
10:53 PM 48.0 °F - 26.1 °F 42% 30.19 in 10.0 mi SSW 5.8 mph - N/A   Clear
11:53 PM 46.0 °F 42.5 °F 26.1 °F 46% 30.17 in 10.0 mi SSW 6.9 mph - N/A   Clear